Kosmos-1188 - Orbit

View from above orbital plane
View from above orbital plane
View from above satellite
View from above satellite

Ground track
Ground track

The orbit data is extracted from the following two-line orbital elements,

1 11844U 80050A   13139.83020017  .51043038  79481-6  15127-1 0  5564
2 11844 062.4752 176.7663 4508615 025.6979 062.5924 06.73900603241479
Epoch (UTC): 19 May 2013 19:55:29
Eccentricity: 0.4508615
inclination: 62.4752°
perigee height: 123 km
apogee height: 10799 km
right ascension of ascending node: 176.7663°
argument of perigee: 25.6979°
revolutions per day: 6.73900603
mean anomaly at epoch: 62.5924°
orbit number at epoch: 24147

The dashed part of the orbit path shows where the satellite is in the earth's shadow,  

Developed and maintained by Chris Peat, Heavens-Above GmbH. Please read the updated FAQ before sending e-mail. Imprint. DLR